Location: Vancouver
(49.2500°N, 123.1330°W)
Time: 20:37:43
(UTC-07:00)

Vanguard 2 Rocket - Visible Passes

Search period start: 24 July 2014 00:00
Search period end: 03 August 2014 00:00
Orbit: 553 x 3337 km, 32.9° (Epoch: 23 July)

Date Brightness Start Highest point End Pass type
(mag) Time Alt. Az. Time Alt. Az. Time Alt. Az.
24 Jul 10.4 03:40:14 10° SSE 03:46:16 13° SE 03:53:07 10° ESE visible
25 Jul 10.1 04:48:41 10° SSW 05:00:07 27° SE 05:14:38 10° E visible
26 Jul 10.1 03:52:29 10° S 04:01:20 20° SE 04:12:23 10° E visible
27 Jul 10.2 02:58:35 10° SE 03:02:59 12° SE 03:07:56 10° ESE visible
28 Jul 9.9 04:06:39 10° S 04:16:35 26° SE 04:29:55 10° E visible
29 Jul 9.9 03:11:04 11° S 03:18:05 18° SE 03:27:28 10° E visible
30 Jul 10.0 02:18:28 10° SE 02:20:00 10° SE 02:21:36 10° ESE visible
30 Jul 9.7 04:21:50 10° SSW 04:32:03 31° SSE 04:46:45 10° E visible
31 Jul 9.6 03:26:42 15° S 03:33:24 24° SE 03:45:01 10° E visible
01 Aug 9.7 02:31:33 14° SSE 02:35:11 16° SE 02:42:29 10° ESE visible
01 Aug 9.6 04:37:27 11° SW 04:47:45 36° SSE 05:03:13 10° E visible
02 Aug 9.3 03:42:19 17° SSW 03:48:57 29° SSE 04:01:51 10° E visible
